FW8607 Weather Reports


time (UTC)temp
F
wind
direction
speed
knots
gust
knots
rain 1hr
in
rain 24hr
in
rain mn
in
humidity
%
barometer
mb
20260906193039 80 293 4.3 7.8 0.00 0.00 0.00 68 1012.7
20260906190019 80 293 4.3 9.6 0.00 0.00 0.00 65 1012.9
20260906183018 80 293 5.2 10.4 0.00 0.00 0.00 64 1013.2
20260906180018 80 293 5.2 9.6 0.00 0.00 0.00 63 1013.3
20260906173018 81 293 4.3 7.8 0.00 0.00 0.00 61 1013.1
20260906170018 80 293 2.6 6.1 0.00 0.00 0.00 62 1012.8
20260906163038 79 293 3.5 6.1 0.00 0.00 0.00 62 1012.7
20260906160018 78 293 3.5 6.1 0.00 0.00 0.00 63 1012.6
20260906153018 77 293 3.5 7.0 0.00 0.00 0.00 64 1012.7
20260906150018 76 293 2.6 4.3 0.00 0.00 0.00 61 1012.7
20260906143019 77 293 0.9 3.5 0.00 0.00 0.00 58 1012.4
20260906140018 77 113 1.7 3.5 0.00 0.00 0.00 56 1011.9
20260906133018 76 113 1.7 3.5 0.00 0.00 0.00 54 1011.5
20260906130018 76 113 1.7 3.5 0.00 0.00 0.00 53 1011.5
20260906123018 76 135 2.6 4.3 0.00 0.00 0.00 51 1011.4
20260906120018 77 113 0.9 3.5 0.00 0.00 0.00 51 1011.6
20260906113018 76 293 0.9 2.6 0.00 0.00 0.00 53 1011.6
20260906110038 75 293 1.7 5.2 0.00 0.00 0.00 49 1011.7
20260906103017 76 270 3.5 6.1 0.00 0.00 0.00 48 1012.1
20260906100038 76 270 2.6 5.2 0.00 0.00 0.00 45 1012.0
20260906093037 77 293 2.6 5.2 0.00 0.00 0.00 43 1011.8
20260906090020 77 338 1.7 3.5 0.00 0.00 0.00 41 1012.1
20260906083020 77 293 2.6 5.2 0.00 0.00 0.00 41 1012.4
20260906080019 78 270 0.9 2.6 0.00 0.00 0.00 43 1012.5
20260906073019 79 135 1.7 3.5 0.00 0.00 0.00 41 1012.7
20260906070019 78 135 0.9 3.5 0.00 0.00 0.00 42 1012.6
20260906063019 78 135 2.6 6.1 0.00 0.00 0.00 39 1012.7
20260906060019 78 90 1.7 3.5 0.00 0.00 0.00 39 1012.4
20260906053019 79 270 1.7 3.5 0.00 0.00 0.00 37 1012.6
20260906050039 79 270 2.6 5.2 0.00 0.00 0.00 37 1012.8
20260906043019 79 270 2.6 5.2 0.00 0.00 0.00 41 1012.6
20260906040019 80 293 1.7 5.2 0.00 0.00 0.00 42 1012.4
20260906033039 81 293 1.7 4.3 0.00 0.00 0.00 38 1012.3
20260906030039 82 270 2.6 6.1 0.00 0.00 0.00 31 1011.8
20260906023019 83 270 4.3 7.8 0.00 0.00 0.00 31 1011.7
20260906020018 85 270 4.3 8.7 0.00 0.00 0.00 28 1011.6
20260906013018 88 270 4.3 8.7 0.00 0.00 0.00 30 1011.7
20260906010018 88 248 6.1 10.4 0.00 0.00 0.00 32 1011.8
20260906003018 88 270 7.0 11.3 0.00 0.00 0.00 34 1011.9
20260906000019 89 270 6.1 13.9 0.00 0.00 0.00 37 1011.7
20260905233018 91 248 7.0 13.0 0.00 0.00 0.00 36 1011.9
20260905230018 91 248 6.1 13.0 0.00 0.00 0.00 33 1011.7
20260905223018 90 248 6.1 11.3 0.00 0.00 0.00 37 1012.1
20260905220018 91 248 7.0 13.0 0.00 0.00 0.00 31 1012.4
20260905213038 92 248 7.0 13.9 0.00 0.00 0.00 37 1012.4
20260905210018 92 248 6.1 12.2 0.00 0.00 0.00 38 1012.8
20260905203018 92 270 7.0 12.2 0.00 0.00 0.00 37 1013.1
20260905200018 92 248 6.1 13.9 0.00 0.00 0.00 30 1013.2